Weather History for Lawton, OK

Change the Weather History Date:

Thursday, March 6, 2014

  Actual Average Record
Temperature  
Mean Temperature 40 °F -  
Max Temperature 53 °F 61 °F 92 °F (1991)
Min Temperature 28 °F 36 °F 17 °F (2003)
Degree Days  
Heating Degree Days 24    
Moisture  
Dew Point 33 °F    
Average Humidity 80    
Maximum Humidity 100    
Minimum Humidity 55    
Precipitation  
Precipitation 0.00 in - - ()
Sea Level Pressure  
Sea Level Pressure 30.18 in    
Wind  
Wind Speed 6 mph (South)    
Max Wind Speed 12 mph    
Max Gust Speed -    
Visibility 7 miles    
Events      
Averages and records for this station are not official NWS values.
T = Trace of Precipitation, MM = Missing Value Source: NWS Daily Summary

Daily Weather History Graph

Daily Weather History Graph

Search for Another Location

Airport:

Trip Planner

Search our weather history database for the weather conditions in past years. The results will help you decide how hot, cold, wet, or windy it might be!

Date:

Astronomy

Mar. 06, 2014 Rise Set
Actual Time 6:56 AM CST 6:33 PM CST
Civil Twilight 6:31 AM CST 6:59 PM CST
Nautical Twilight 6:01 AM CST 7:28 PM CST
Astronomical Twilight 5:32 AM CST 7:57 PM CST
Moon 10:19 AM CST (3/6) No Moon Set
Length of Visible Light 12h 28m
Length of Day
11h 37m
Waxing Crescent, 32% of the Moon is Illuminated
Mar 6
Waxing Crescent
Mar 8
First Quarter
Mar 16
Full
Mar 23
Last Quarter
Mar 30
New

Hourly Weather History & Observations

Time (CST) Temp. Windchill Dew Point Humidity Pressure Visibility Wind Dir Wind Speed Gust Speed Precip Events Conditions
12:53 AM 35.1 °F 26.9 °F 32.0 °F 89% 30.26 in 5.0 mi North 11.5 mph - N/A   Overcast
1:53 AM 35.1 °F 28.6 °F 32.0 °F 89% 30.26 in 4.0 mi North 8.1 mph - N/A   Overcast
2:53 AM 33.1 °F 26.1 °F 30.0 °F 89% 30.26 in 4.0 mi North 8.1 mph - N/A   Mostly Cloudy
3:53 AM 30.9 °F 27.5 °F 28.9 °F 92% 30.25 in 4.0 mi NNW 3.5 mph - N/A   Clear
4:49 AM 30.2 °F - 28.4 °F 93% 30.23 in 2.5 mi Calm Calm - N/A   Clear
4:53 AM 30.0 °F 26.5 °F 28.9 °F 96% 30.25 in 3.0 mi West 3.5 mph - N/A   Clear
5:21 AM 28.4 °F 22.2 °F 28.4 °F 100% 30.23 in 2.5 mi West 5.8 mph - N/A   Clear
5:28 AM 30.2 °F 24.3 °F 28.4 °F 93% 30.23 in 3.0 mi West 5.8 mph - N/A   Partly Cloudy
5:41 AM 30.2 °F 24.3 °F 30.2 °F 100% 30.23 in 3.0 mi WNW 5.8 mph - N/A   Mostly Cloudy
5:53 AM 32.0 °F 27.5 °F 30.0 °F 92% 30.26 in 3.0 mi WNW 4.6 mph - N/A   Overcast
6:53 AM 33.1 °F - 30.0 °F 89% 30.26 in 4.0 mi Calm Calm - N/A   Overcast
7:53 AM 35.1 °F 29.3 °F 32.0 °F 89% 30.27 in 4.0 mi North 6.9 mph - N/A   Overcast
8:53 AM 37.9 °F 33.5 °F 32.0 °F 79% 30.28 in 5.0 mi North 5.8 mph - N/A   Haze
9:53 AM 39.9 °F 36.7 °F 34.0 °F 79% 30.29 in 5.0 mi NNE 4.6 mph - N/A   Haze
10:53 AM 42.1 °F - 34.0 °F 73% 30.27 in 9.0 mi Calm Calm - N/A   Overcast
11:53 AM 43.0 °F 41.3 °F 34.0 °F 71% 30.26 in 9.0 mi East 3.5 mph - N/A   Overcast
12:53 PM 45.0 °F - 36.0 °F 71% 30.22 in 10.0 mi Calm Calm - N/A   Overcast
1:53 PM 48.0 °F - 37.0 °F 66% 30.18 in 10.0 mi Variable 3.5 mph - N/A   Scattered Clouds
2:53 PM 50.0 °F - 37.9 °F 63% 30.14 in 10.0 mi SW 5.8 mph - N/A   Clear
3:53 PM 52.0 °F - 37.9 °F 59% 30.08 in 10.0 mi SSE 8.1 mph - N/A   Clear
4:53 PM 53.1 °F - 37.0 °F 55% 30.06 in 10.0 mi SE 8.1 mph - N/A   Clear
5:53 PM 53.1 °F - 37.0 °F 55% 30.04 in 10.0 mi South 8.1 mph - N/A   Clear
6:53 PM 48.0 °F - 37.0 °F 66% 30.05 in 10.0 mi SSE 3.5 mph - N/A   Clear
7:53 PM 44.1 °F 40.8 °F 37.0 °F 76% 30.06 in 10.0 mi SE 5.8 mph - N/A   Clear
8:53 PM 41.0 °F 38.0 °F 35.1 °F 79% 30.06 in 10.0 mi SE 4.6 mph - N/A   Clear
9:53 PM 39.9 °F 36.7 °F 36.0 °F 86% 30.04 in 9.0 mi SE 4.6 mph - N/A   Clear
10:53 PM 41.0 °F 37.1 °F 35.1 °F 79% 30.02 in 10.0 mi SSE 5.8 mph - N/A   Clear
11:53 PM 39.9 °F 36.7 °F 35.1 °F 83% 30.00 in 9.0 mi SSE 4.6 mph - N/A   Clear